"Pseudo-MPEC" for P22oG6r

Created 2026 Jul 28 21:35:11 UT using Find_Orb

Click here for an explanation of pseudo-MPECs

 
 Astrometry: 
     P22oG6r*0C2026 07 26.50266023 12 24.721+08 20 17.08   ~7QDZ 22.03wXNEOCPF52
     P22oG6r 0C2026 07 26.51234423 12 25.188+08 20 21.23   ~7QDZ 21.53wXNEOCPF52
     P22oG6r 0C2026 07 26.52197723 12 25.632+08 20 25.29   ~7QDZ 21.37wXNEOCPF52
     P22oG6r 0C2026 07 26.53180623 12 26.119+08 20 29.67   ~7QDZ 21.99wXNEOCPF52
     P22oG6r 0C2026 07 26.57190623 12 27.995+08 20 46.50   ~7QH5 21.82GVNEOCPF51
     P22oG6r 0C2026 07 26.57255823 12 28.023+08 20 46.75   ~7QH5 21.47GVNEOCPF51
     P22oG6r 0C2026 07 27.49732923 13 36.631+08 26 51.74   ~7RM5 21.94GVNEOCPF52
     P22oG6r 0C2026 07 27.49815223 13 36.664+08 26 51.47   ~7RM5 21.94GVNEOCPF52

Station data:
(F51) Pan-STARRS 1, Haleakala  (N20.707234 W156.255910)  US/Hawaii.
   Observers J. Herman, T. Lowe, P. Minguez, A. Schultz, I. Smith. Measurers
   K. Chambers, T. de Boer, J. Fairlamb, H. Gao, M. Huber, C.-C. Lin, E.
   Magnier, Y. Ramanjooloo, R. Wainscoat, R. Weryk. 1.8-m Ritchey-Chrétien +
   CCD.
(F52) Pan-STARRS 2, Haleakala  (N20.707382 W156.255910)  US/Hawaii.
   Observers J. Herman, T. Lowe, P. Minguez, A. Schultz, I. Smith. Measurers
   K. Chambers, T. de Boer, J. Fairlamb, H. Gao, M. Huber, C.-C. Lin, E.
   Magnier, Y. Ramanjooloo, R. Wainscoat, R. Weryk. 1.8-m Ritchey-Chrétien +
   CCD.

Orbital elements:  P22oG6r
   Perihelion 2026 Jun 30.254722 +/- 0.731 TT =  6:06:47.9 (JD 2461221.754722)
Epoch 2026 Jul 27.0 TT = JDT 2461248.5   Earth MOID: 0.0706   Ma: 0.0004
M  16.738996573 +/- 2.5             (J2000 ecliptic)             AutoNEOCP
n   0.625867350 +/- 0.112           Peri.   56.892270 +/- 28
a   1.353571448 +/- 0.162           Node   226.316433 +/- 26
e   0.19926353 +/- 0.104            Incl.    1.431331 +/- 0.06
P   1.575/575.191d         H 24.39  G  0.15   U 11.3
q 1.083854013 +/- 0.012    Q 1.623288882 +/- 0.335
From 8 observations 2026 July 26-27 (23.9 hr); mean residual 0".13
Residuals in arcseconds: 
260726 F52  .06+  .09+    260726 F52  .10+  .02+    260727 F52  .02+  .30+    
260726 F52  .04+  .01-    260726 F51  .02+  .02+    260727 F52  .02-  .30-    
260726 F52  .21-  .13-    260726 F51  .02-  .00     

Ephemerides (geocentric):
Date (UTC) HH   RA             Dec           delta  r     elong  mag " sig PA
---- --------  ------------   ------------  ------ ------ -----  --- --------
2026 07 28 22  23 15 09.340   +08 35 09.33  .12826 1.1040 131.2 21.8 29.1  71
2026 07 28 23  23 15 11.961   +08 35 22.10  .12828 1.1040 131.2 21.8 30.4  71
2026 07 29 00  23 15 14.574   +08 35 34.78  .12831 1.1041 131.2 21.8 31.7  71
2026 07 29 01  23 15 17.179   +08 35 47.38  .12834 1.1041 131.2 21.8 33.1  71
2026 07 29 02  23 15 19.775   +08 35 59.91  .12836 1.1042 131.3 21.8 34.5  71
2026 07 29 03  23 15 22.364   +08 36 12.35  .12839 1.1042 131.3 21.8 36.0  71
2026 07 29 04  23 15 24.943   +08 36 24.71  .12842 1.1043 131.3 21.8 37.4  71
2026 07 29 05  23 15 27.515   +08 36 36.99  .12844 1.1044 131.4 21.8 38.9  71
2026 07 29 06  23 15 30.078   +08 36 49.19  .12847 1.1044 131.4 21.8 40.4  71
2026 07 29 07  23 15 32.633   +08 37 01.31  .12850 1.1045 131.4 21.8 42.0  71
2026 07 29 08  23 15 35.180   +08 37 13.36  .12853 1.1045 131.4 21.8 43.5  71
2026 07 29 09  23 15 37.718   +08 37 25.32  .12855 1.1046 131.5 21.8 45.1  71
2026 07 29 10  23 15 40.248   +08 37 37.20  .12858 1.1047 131.5 21.8 46.7  71
2026 07 29 11  23 15 42.770   +08 37 49.00  .12861 1.1047 131.5 21.8 48.4  71
2026 07 29 12  23 15 45.284   +08 38 00.72  .12863 1.1048 131.5 21.8 50.1  71
2026 07 29 13  23 15 47.789   +08 38 12.36  .12866 1.1048 131.6 21.8 51.7  71
2026 07 29 14  23 15 50.286   +08 38 23.92  .12869 1.1049 131.6 21.8 53.5  71
2026 07 29 15  23 15 52.775   +08 38 35.40  .12872 1.1049 131.6 21.8 55.2  71
2026 07 29 16  23 15 55.255   +08 38 46.79  .12874 1.1050 131.7 21.8 57.0  71
2026 07 29 17  23 15 57.728   +08 38 58.11  .12877 1.1051 131.7 21.8 58.8  71
2026 07 29 18  23 16 00.192   +08 39 09.35  .12880 1.1051 131.7 21.8 60.6  71
2026 07 29 19  23 16 02.648   +08 39 20.51  .12883 1.1052 131.7 21.8 62.4  71
2026 07 29 20  23 16 05.095   +08 39 31.59  .12885 1.1052 131.8 21.8 64.3  71
2026 07 29 21  23 16 07.534   +08 39 42.59  .12888 1.1053 131.8 21.8 66.2  71
2026 07 29 22  23 16 09.965   +08 39 53.51  .12891 1.1054 131.8 21.8 68.1  71
2026 07 29 23  23 16 12.388   +08 40 04.34  .12894 1.1054 131.9 21.8 70.0  71
2026 07 30 00  23 16 14.803   +08 40 15.10  .12896 1.1055 131.9 21.8 72.0  71
2026 07 30 01  23 16 17.209   +08 40 25.78  .12899 1.1055 131.9 21.8 74.0  71
2026 07 30 02  23 16 19.607   +08 40 36.38  .12902 1.1056 131.9 21.8 76.0  71
2026 07 30 03  23 16 21.997   +08 40 46.90  .12905 1.1056 132.0 21.8 78.0  71
2026 07 30 04  23 16 24.378   +08 40 57.33  .12907 1.1057 132.0 21.8 80.1  71
2026 07 30 05  23 16 26.752   +08 41 07.69  .12910 1.1058 132.0 21.8 82.2  71
2026 07 30 06  23 16 29.117   +08 41 17.97  .12913 1.1058 132.1 21.8 84.3  71
2026 07 30 07  23 16 31.473   +08 41 28.17  .12916 1.1059 132.1 21.8 86.4  71
2026 07 30 08  23 16 33.822   +08 41 38.28  .12918 1.1059 132.1 21.8 88.6  71
2026 07 30 09  23 16 36.162   +08 41 48.32  .12921 1.1060 132.1 21.8 90.7  71
2026 07 30 10  23 16 38.495   +08 41 58.28  .12924 1.1061 132.2 21.8 92.9  71
2026 07 30 11  23 16 40.818   +08 42 08.16  .12927 1.1061 132.2 21.8 95.2  71
2026 07 30 12  23 16 43.134   +08 42 17.95  .12930 1.1062 132.2 21.8 97.4  71
2026 07 30 13  23 16 45.442   +08 42 27.67  .12932 1.1062 132.3 21.8  100  71
2026 07 30 14  23 16 47.741   +08 42 37.31  .12935 1.1063 132.3 21.8  102  71
2026 07 30 15  23 16 50.032   +08 42 46.87  .12938 1.1064 132.3 21.8  104  71
2026 07 30 16  23 16 52.315   +08 42 56.34  .12941 1.1064 132.3 21.8  107  71
2026 07 30 17  23 16 54.589   +08 43 05.74  .12944 1.1065 132.4 21.8  109  71
2026 07 30 18  23 16 56.856   +08 43 15.06  .12946 1.1065 132.4 21.8  111  71
2026 07 30 19  23 16 59.114   +08 43 24.30  .12949 1.1066 132.4 21.8  114  71
2026 07 30 20  23 17 01.364   +08 43 33.46  .12952 1.1067 132.5 21.8  116  71
2026 07 30 21  23 17 03.606   +08 43 42.54  .12955 1.1067 132.5 21.8  119  71